When you browse on this site, cookies collect data to enhance your experience and personalize the content and advertising you see.
Visit our Privacy Policy to learn more. By continuing to use the site, you agree to this use of cookies and data.
  • In Switzerland
  • List of Countries
  • For 7 days
  • Water Temperature
  • Satellite Maps
  • Weather Map
  • Weather Widgets
  • user-avatar
    Login

    Hourly Weather Zalozie

    Today, 19 April, Friday

    Time Temperature Precipitation Wind Pressure Humidity
    00:00 +10°C° 0 mm 2 mps 760 mmHg 59%
    01:00 +10°C° 0 mm 2 mps 760 mmHg 59%
    02:00 +9°C° 0 mm 2 mps 760 mmHg 62%
    03:00 +9°C° 0 mm 2 mps 760 mmHg 64%
    04:00 +8°C° 0 mm 2 mps 760 mmHg 67%
    05:00 +9°C° 0 mm 2 mps 761 mmHg 67%
    06:00 +10°C° 0 mm 2 mps 761 mmHg 66%
    07:00 +12°C° 0 mm 2 mps 761 mmHg 65%
    08:00 +14°C° 0 mm 2 mps 761 mmHg 59%
    09:00 +16°C° 0 mm 2 mps 761 mmHg 53%
    10:00 +18°C° 0 mm 3 mps 761 mmHg 46%
    11:00 +19°C° 0 mm 3 mps 761 mmHg 43%
    12:00 +20°C° 0 mm 3 mps 761 mmHg 40%
    13:00 +21°C° 0 mm 4 mps 761 mmHg 37%
    14:00 +20°C° 0 mm 4 mps 760 mmHg 38%
    15:00 +20°C° 0 mm 4 mps 760 mmHg 38%
    16:00 +20°C° 0 mm 4 mps 760 mmHg 39%
    17:00 +18°C° 0 mm 3 mps 760 mmHg 44%
    18:00 +17°C° 0 mm 3 mps 760 mmHg 49%
    19:00 +15°C° 0 mm 2 mps 760 mmHg 54%
    20:00 +14°C° 0 mm 2 mps 760 mmHg 55%
    21:00 +13°C° 0 mm 2 mps 760 mmHg 55%
    22:00 +12°C° 0 mm 1 mps 760 mmHg 56%
    23:00 +12°C° 0 mm 1 mps 760 mmHg 59%

    Tomorrow, 20 April, Saturday

    Time Temperature Precipitation Wind Pressure Humidity
    00:00 +11°C° 0 mm 1 mps 760 mmHg 62%
    01:00 +10°C° 0 mm 1 mps 760 mmHg 65%
    02:00 +10°C° 0 mm 1 mps 760 mmHg 68%
    03:00 +9°C° 0 mm 1 mps 760 mmHg 71%
    04:00 +8°C° 0 mm 1 mps 760 mmHg 75%
    05:00 +9°C° 0 mm 1 mps 760 mmHg 73%
    06:00 +9°C° 0 mm 2 mps 760 mmHg 71%
    07:00 +10°C° 0 mm 2 mps 760 mmHg 69%
    08:00 +13°C° 0 mm 2 mps 760 mmHg 60%
    09:00 +14°C° 0 mm 3 mps 759 mmHg 50%
    10:00 +16°C° 0 mm 3 mps 759 mmHg 41%
    11:00 +17°C° 0 mm 3 mps 759 mmHg 36%
    12:00 +18°C° 0 mm 3 mps 759 mmHg 32%
    13:00 +18°C° 0 mm 4 mps 758 mmHg 28%
    14:00 +18°C° 0 mm 4 mps 758 mmHg 30%
    15:00 +18°C° 0 mm 4 mps 758 mmHg 32%
    16:00 +18°C° 0 mm 3 mps 757 mmHg 34%
    17:00 +16°C° 0 mm 3 mps 757 mmHg 41%
    18:00 +15°C° 0 mm 2 mps 757 mmHg 47%
    19:00 +13°C° 0 mm 2 mps 757 mmHg 54%
    20:00 +13°C° 0 mm 2 mps 757 mmHg 56%
    21:00 +12°C° 0 mm 2 mps 757 mmHg 59%
    22:00 +10°C° 0 mm 3 mps 757 mmHg 62%
    23:00 +9°C° 0 mm 3 mps 757 mmHg 65%

    Day after tomorrow, 21 April, Sunday

    Time Temperature Precipitation Wind Pressure Humidity
    00:00 +8°C° 0 mm 2 mps 757 mmHg 68%
    01:00 +7°C° 0 mm 2 mps 757 mmHg 71%
    02:00 +7°C° 0 mm 2 mps 756 mmHg 72%
    03:00 +6°C° 0 mm 2 mps 756 mmHg 73%
    04:00 +6°C° 0 mm 2 mps 756 mmHg 74%
    05:00 +7°C° 0 mm 2 mps 756 mmHg 71%
    06:00 +8°C° 0 mm 2 mps 756 mmHg 67%
    07:00 +9°C° 0 mm 2 mps 756 mmHg 63%
    08:00 +10°C° 0 mm 2 mps 756 mmHg 57%
    09:00 +13°C° 0 mm 2 mps 755 mmHg 50%
    10:00 +15°C° 0 mm 2 mps 755 mmHg 43%
    11:00 +16°C° 0 mm 3 mps 755 mmHg 41%
    12:00 +17°C° 0 mm 3 mps 754 mmHg 38%
    13:00 +17°C° 0 mm 3 mps 754 mmHg 36%
    14:00 +17°C° 0 mm 3 mps 753 mmHg 36%
    15:00 +17°C° 0 mm 3 mps 753 mmHg 37%
    16:00 +17°C° 0 mm 3 mps 752 mmHg 38%
    17:00 +16°C° 0 mm 3 mps 752 mmHg 43%
    18:00 +15°C° 0 mm 2 mps 752 mmHg 48%
    19:00 +13°C° 0 mm 2 mps 752 mmHg 54%
    20:00 +11°C° 0.1 mm 3 mps 752 mmHg 61%
    21:00 +10°C° 0.1 mm 4 mps 752 mmHg 68%
    22:00 +7°C° 0.1 mm 5 mps 752 mmHg 75%
    23:00 +7°C° 0.7 mm 4 mps 751 mmHg 80%

    22 April, Monday

    Time Temperature Precipitation Wind Pressure Humidity
    00:00 +7°C° 0.7 mm 3 mps 751 mmHg 85%
    01:00 +7°C° 0.7 mm 2 mps 751 mmHg 90%
    02:00 +6°C° 0.1 mm 2 mps 751 mmHg 92%
    03:00 +6°C° 0.1 mm 2 mps 751 mmHg 94%
    04:00 +5°C° 0.1 mm 2 mps 751 mmHg 96%
    05:00 +5°C° 0 mm 3 mps 751 mmHg 93%
    06:00 +7°C° 0 mm 3 mps 751 mmHg 89%
    07:00 +7°C° 0 mm 4 mps 751 mmHg 85%
    08:00 +8°C° 0 mm 4 mps 751 mmHg 80%
    09:00 +10°C° 0 mm 5 mps 751 mmHg 75%
    10:00 +12°C° 0 mm 5 mps 751 mmHg 70%
    11:00 +13°C° 0.2 mm 6 mps 751 mmHg 62%
    12:00 +15°C° 0.2 mm 6 mps 751 mmHg 55%
    13:00 +17°C° 0.2 mm 7 mps 750 mmHg 47%
    14:00 +17°C° 0 mm 7 mps 750 mmHg 48%
    15:00 +17°C° 0 mm 7 mps 750 mmHg 49%
    16:00 +16°C° 0 mm 8 mps 749 mmHg 49%
    17:00 +15°C° 0 mm 7 mps 749 mmHg 55%
    18:00 +14°C° 0 mm 6 mps 749 mmHg 60%
    19:00 +11°C° 0 mm 6 mps 749 mmHg 65%
    20:00 +11°C° 0 mm 6 mps 749 mmHg 66%
    21:00 +11°C° 0 mm 7 mps 749 mmHg 66%
    22:00 +10°C° 0 mm 7 mps 749 mmHg 67%
    23:00 +10°C° 0 mm 7 mps 749 mmHg 69%

    23 April, Tuesday

    Time Temperature Precipitation Wind Pressure Humidity
    00:00 +9°C° 0 mm 7 mps 749 mmHg 71%
    01:00 +9°C° 0 mm 7 mps 748 mmHg 74%
    02:00 +9°C° 0 mm 7 mps 748 mmHg 76%
    03:00 +8°C° 0 mm 7 mps 748 mmHg 79%
    04:00 +8°C° 0 mm 7 mps 748 mmHg 81%
    05:00 +9°C° 0 mm 8 mps 748 mmHg 77%
    06:00 +10°C° 0 mm 8 mps 747 mmHg 72%
    07:00 +11°C° 0 mm 8 mps 747 mmHg 68%
    08:00 +11°C° 0 mm 9 mps 747 mmHg 64%
    09:00 +12°C° 0 mm 9 mps 747 mmHg 61%
    10:00 +13°C° 0 mm 9 mps 748 mmHg 57%
    11:00 +13°C° 0.1 mm 8 mps 747 mmHg 56%
    12:00 +15°C° 0.1 mm 8 mps 747 mmHg 55%
    13:00 +15°C° 0.1 mm 7 mps 747 mmHg 54%
    14:00 +16°C° 0 mm 8 mps 747 mmHg 53%
    15:00 +16°C° 0 mm 8 mps 746 mmHg 53%
    16:00 +17°C° 0 mm 9 mps 746 mmHg 52%
    17:00 +15°C° 0 mm 9 mps 746 mmHg 55%
    18:00 +13°C° 0 mm 8 mps 746 mmHg 58%
    19:00 +11°C° 0 mm 8 mps 746 mmHg 61%
    20:00 +11°C° 0 mm 7 mps 746 mmHg 60%
    21:00 +11°C° 0 mm 6 mps 747 mmHg 60%
    22:00 +11°C° 0 mm 6 mps 747 mmHg 59%
    23:00 +11°C° 0 mm 6 mps 747 mmHg 62%

    24 April, Wednesday

    Time Temperature Precipitation Wind Pressure Humidity
    00:00 +11°C° 0 mm 6 mps 747 mmHg 65%
    01:00 +10°C° 0 mm 6 mps 747 mmHg 68%
    02:00 +10°C° 0 mm 6 mps 747 mmHg 72%
    03:00 +10°C° 0 mm 6 mps 747 mmHg 75%
    04:00 +10°C° 0 mm 6 mps 747 mmHg 78%
    05:00 +10°C° 0 mm 6 mps 747 mmHg 77%
    06:00 +11°C° 0 mm 6 mps 747 mmHg 75%
    07:00 +11°C° 0 mm 6 mps 747 mmHg 73%
    08:00 +14°C° 0 mm 6 mps 747 mmHg 68%
    09:00 +16°C° 0 mm 6 mps 748 mmHg 63%
    10:00 +19°C° 0 mm 6 mps 748 mmHg 59%
    11:00 +19°C° 0 mm 6 mps 748 mmHg 61%
    12:00 +19°C° 0 mm 5 mps 748 mmHg 63%
    13:00 +19°C° 0 mm 5 mps 748 mmHg 65%
    14:00 +19°C° 0 mm 4 mps 748 mmHg 64%
    15:00 +20°C° 0 mm 4 mps 748 mmHg 64%
    16:00 +20°C° 0 mm 4 mps 748 mmHg 63%
    17:00 +19°C° 0 mm 4 mps 749 mmHg 67%
    18:00 +18°C° 0 mm 3 mps 749 mmHg 72%
    19:00 +17°C° 0 mm 3 mps 749 mmHg 76%
    20:00 +16°C° 0 mm 3 mps 749 mmHg 78%
    21:00 +16°C° 0 mm 3 mps 750 mmHg 79%
    22:00 +14°C° 0 mm 3 mps 750 mmHg 80%
    23:00 +14°C° 0 mm 3 mps 750 mmHg 79%
    Show more